Airfield :
LOGIN :

Register | Disclaimer

   EN    FR    IT 

 










Legend :    VFR   Marginal VFR   IFR   Intensive IFR   Very Intensive IFR
Visi :
Ceiling :
>= 8 km
>= 3000ft
5 to 8 km
1000 to 3000 ft
1500m to 5 km
500 to 1000 ft
800 to 1500m
200 to 500 ft
< 800m
< 200 ft
Symbols :   Thunderstorms  Fog  Heavy snow  Heavy precipitations  Wind > 20 kt
SIGMETs :     Misc.  Thunderstorms  Icing  Turbulence  Mountain Waves  Volcanic Ashes







- Airport Elevation : 291 ft
- IATA code : ORY
- Download approach charts


LFPO - Paris-Orly

CURRENT METAR :
  • 152230Z 28004KT CAVOK 16/12 Q1019 NOSIG

EXPIRED METARs :
  • 152200Z 00000KT CAVOK 17/13 Q1019 NOSIG
  • 152130Z 00000KT CAVOK 18/13 Q1019 NOSIG
  • 152100Z 00000KT CAVOK 18/13 Q1019 NOSIG
  • 152030Z VRB02KT CAVOK 19/14 Q1019 NOSIG
  • 152000Z VRB02KT CAVOK 20/14 Q1019 NOSIG

TAF TAF LFPO
Valid from the 15 at 18:00 until the 17 at 00:00 UTC


151700Z 1518/1624 VRB03KT CAVOK
BECMG 1617/1619 34015G25KT
TEMPO 1622/1624 4000 RA BKN012 SCT050CB
ATIS : +33 1 49 75 65 80
No reported NOTAMs for that airfield.



MET'MAP, your aeronautical weather chart ! - Copyright ORBIFLY December 2007 - Disclaimer

ORBIFLY MET'MAP TEAM :

Programming & Development : Alexandra Zaïnal
Concept & Development : Baudouin d'Aumeries
Co-Development & Prog : Marc-Olivier Méhu
Technical & hardware support : Manuel Goepfert

Contact : metmap@orbifly.com




SOURCES & CREDITS :

   NOAA